Location: Black Forest
(43.4794°N, 75.0081°W)
Time: 04:34:37
(UTC-04:00)

ISS - All Passes

Search period start: 24 September 2017 00:00
Search period end: 04 October 2017 00:00
Orbit: 401 x 407 km, 51.6° (Epoch: 24 September)

Date Brightness Start Highest point End Pass type
(mag) Time Alt. Az. Time Alt. Az. Time Alt. Az.
24 Sep - 00:52:47 10° NW 00:55:19 20° N 00:57:51 10° ENE night (unlit)
24 Sep - 02:29:10 10° NW 02:32:23 46° NNE 02:35:34 10° E night (unlit)
24 Sep - 04:05:54 10° WNW 04:08:43 26° SW 04:11:31 10° SSE night (unlit)
24 Sep - 20:45:50 10° SW 20:49:00 48° SE 20:52:11 10° ENE visible
24 Sep - 22:22:36 10° W 22:25:35 31° NNW 22:28:35 10° NE night (unlit)
25 Sep - 00:00:18 10° NW 00:02:46 19° N 00:05:14 10° NE night (unlit)
25 Sep - 01:36:56 10° NW 01:39:57 31° NNE 01:42:56 10° E night (unlit)
25 Sep - 03:13:20 10° WNW 03:16:32 48° SW 03:19:43 10° SE night (unlit)
25 Sep - 19:54:02 10° SSW 19:56:48 26° SE 19:59:35 10° ENE visible
25 Sep - 21:29:58 10° W 21:33:09 46° NNW 21:36:20 10° NE visible
25 Sep - 23:07:39 10° WNW 23:10:11 20° N 23:12:44 10° NE night (unlit)
26 Sep - 00:44:40 10° NW 00:47:27 24° NNE 00:50:13 10° ENE night (unlit)
26 Sep - 02:20:57 10° WNW 02:24:15 89° SSW 02:27:32 10° SE night (unlit)
26 Sep - 03:58:59 10° WSW 04:00:15 12° SW 04:01:31 10° SSW night (unlit)
26 Sep - 19:02:49 10° SSE 19:04:41 14° SE 19:06:32 10° E daylight
26 Sep - 20:37:29 10° WSW 20:40:45 76° NNW 20:44:03 10° NE visible
26 Sep - 22:14:56 10° WNW 22:17:38 23° NNW 22:20:20 10° NE visible
26 Sep - 23:52:18 10° NW 23:54:54 21° N 23:57:29 10° ENE night (unlit)
27 Sep - 01:28:38 10° NW 01:31:53 54° NNE 01:35:07 10° ESE night (unlit)
27 Sep - 03:05:33 10° W 03:08:09 21° SW 03:10:43 10° S night (unlit)
27 Sep - 19:45:13 10° SW 19:48:26 60° SE 19:51:41 10° ENE visible
27 Sep - 21:22:11 10° W 21:25:06 28° NNW 21:28:01 10° NE visible
27 Sep - 22:59:50 10° NW 23:02:18 19° N 23:04:47 10° NE night (unlit)
28 Sep - 00:36:22 10° NW 00:39:27 35° NNE 00:42:30 10° E night (unlit)
28 Sep - 02:12:50 10° WNW 02:15:56 39° SW 02:19:01 10° SSE night (unlit)
28 Sep - 18:53:14 10° SSW 18:56:10 32° SE 18:59:09 10° ENE daylight
28 Sep - 20:29:29 10° W 20:32:35 39° NNW 20:35:44 10° NE visible
28 Sep - 22:07:12 10° NW 22:09:41 19° N 22:12:11 10° NE visible
28 Sep - 23:44:04 10° NW 23:46:55 26° NNE 23:49:46 10° ENE night (unlit)
29 Sep - 01:20:22 10° WNW 01:23:39 73° SW 01:26:55 10° SE night (unlit)
29 Sep - 18:01:44 10° S 18:03:59 18° SE 18:06:15 10° E daylight
29 Sep - 19:36:54 10° WSW 19:40:09 63° NNW 19:43:25 10° NE visible
29 Sep - 21:14:27 10° WNW 21:17:05 22° N 21:19:42 10° NE visible
29 Sep - 22:51:42 10° NW 22:54:21 22° N 22:56:59 10° ENE night (unlit)
30 Sep - 00:28:00 10° NW 00:31:16 64° NNE 00:34:32 10° ESE night (unlit)
30 Sep - 02:05:10 10° W 02:07:26 18° SW 02:09:43 10° S night (unlit)
30 Sep - 18:44:31 10° SW 18:47:46 74° SE 18:51:02 10° ENE daylight
30 Sep - 20:21:40 10° WNW 20:24:29 26° NNW 20:27:19 10° NE visible
30 Sep - 21:59:14 10° NW 22:01:43 19° N 22:04:13 10° NE visible
30 Sep - 23:35:40 10° NW 23:38:48 40° NNE 23:41:56 10° E night (unlit)
01 Oct - 01:12:15 10° WNW 01:15:14 31° SW 01:18:11 10° SSE night (unlit)
01 Oct - 17:52:23 10° SSW 17:55:26 39° SE 17:58:31 10° ENE daylight
01 Oct - 19:28:54 10° W 19:31:56 35° NNW 19:35:00 10° NE visible
01 Oct - 21:06:37 10° NW 21:09:05 19° N 21:11:32 10° NE visible
01 Oct - 22:43:21 10° NW 22:46:16 29° NNE 22:49:12 10° E night (unlit)
02 Oct - 00:19:41 10° WNW 00:22:55 59° SW 00:26:09 10° SE night (unlit)
02 Oct - 17:00:38 10° S 17:03:11 21° SE 17:05:45 10° E daylight
02 Oct - 18:36:13 10° WSW 18:39:26 53° NNW 18:42:39 10° NE daylight
02 Oct - 20:13:51 10° WNW 20:16:26 21° N 20:18:59 10° NE visible
02 Oct - 21:50:59 10° NW 21:53:40 23° NNE 21:56:22 10° ENE visible
02 Oct - 23:27:15 10° NW 23:30:33 77° NNE 23:33:49 10° ESE night (unlit)
03 Oct - 01:04:46 10° W 01:06:37 14° SW 01:08:28 10° SSW night (unlit)
03 Oct - 16:09:45 10° SSE 16:10:59 12° SE 16:12:14 10° ESE daylight
03 Oct - 17:43:43 10° WSW 17:46:59 90° SE 17:50:16 10° ENE daylight
03 Oct - 19:21:02 10° WNW 19:23:47 24° NNW 19:26:32 10° NE visible
03 Oct - 20:58:30 10° NW 21:01:02 20° N 21:03:33 10° ENE visible
03 Oct - 22:34:52 10° NW 22:38:04 46° NNE 22:41:15 10° ESE night (unlit)
